Location: D�rnast
(49.6426°N, 11.9755°E)
Time: 01:29:57
(UTC+00:00)

ISS - Visible Passes

Search period start: 01 December 2021 00:00
Search period end: 11 December 2021 00:00
Orbit: 417 x 423 km, 51.6° (Epoch: 30 November)

Date Brightness Start Highest point End Pass type
(mag) Time Alt. Az. Time Alt. Az. Time Alt. Az.
01 Dec -3.5 16:08:05 10° W 16:11:28 59° N 16:14:25 13° E visible
01 Dec -2.6 17:45:01 10° WNW 17:47:25 42° W 17:47:25 42° W visible
02 Dec -3.8 16:57:49 10° WNW 17:01:13 83° NNE 17:02:15 42° E visible
02 Dec -0.3 18:34:51 10° W 18:35:14 12° W 18:35:14 12° W visible
03 Dec -3.7 16:10:35 10° WNW 16:13:59 69° N 16:17:09 12° E visible
03 Dec -2.3 17:47:31 10° WNW 17:50:09 37° WSW 17:50:09 37° WSW visible
04 Dec -3.2 17:00:15 10° WNW 17:03:36 57° SSW 17:05:12 27° SE visible
04 Dec -0.2 18:38:11 10° WSW 18:38:12 10° WSW 18:38:12 10° WSW visible
05 Dec -3.6 16:12:59 10° WNW 16:16:24 78° SSW 16:19:48 10° ESE visible
05 Dec -1.4 17:50:20 10° W 17:52:51 19° SW 17:53:25 19° SSW visible
06 Dec -1.8 17:02:48 10° W 17:05:46 28° SW 17:08:43 10° SSE visible
07 Dec -2.3 16:15:26 10° W 16:18:38 40° SSW 16:21:50 10° SE visible
08 Dec -0.6 17:06:06 10° WSW 17:07:43 13° SW 17:09:18 10° SSW visible
09 Dec -0.8 16:18:11 10° W 16:20:39 19° SW 16:23:08 10° S visible
